Theta_e
286 285 285 285 286 286 286 286 287 287 288 289 289 290 288 288 288 289 289 290 295 302 310 311 319 323 325 323 321 319 319 315 315 312 311 310 311 311
286 285 285 285 285 285 286 286 286 287 286 288 288 287 287 287 288 288 288 288 292 295 305 309 313 320 325 322 321 319 318 315 314 312 311 311 310 311
285 285 285 285 285 285 285 285 285 286 286 286 287 287 287 287 287 288 288 288 291 293 299 307 313 317 323 323 320 319 317 314 313 312 310 311 310 310
285 285 285 285 284 284 284 285 285 285 286 286 286 286 286 287 287 287 288 288 290 295 300 305 309 312 321 323 320 319 316 314 313 311 310 310 310 309
285 285 285 284 284 284 284 284 284 285 285 285 285 286 286 286 287 287 288 289 289 291 293 301 309 312 316 321 320 319 316 314 313 311 309 310 309 308
284 284 284 284 283 284 283 284 284 284 284 285 285 285 285 286 286 287 288 288 290 290 296 301 307 313 315 321 321 319 316 314 312 310 309 309 309 307
285 285 285 284 284 284 283 283 283 284 284 284 284 285 285 286 286 286 287 288 288 293 295 298 305 308 312 318 320 319 316 314 312 310 309 309 308 307
285 285 285 284 284 285 286 286 286 285 285 285 285 285 285 286 286 286 287 288 288 291 289 290 293 303 311 315 319 319 316 314 312 310 309 308 307 306
285 285 285 284 284 284 284 285 286 286 287 287 286 286 285 286 286 286 286 287 287 288 289 289 291 297 306 309 314 319 316 314 312 310 308 308 307 306
283 283 284 284 284 284 284 284 284 284 284 285 286 286 285 285 286 286 286 287 287 288 289 291 293 299 303 308 314 316 316 313 312 310 308 308 307 306
282 282 283 283 284 284 284 284 284 284 284 284 285 285 285 285 286 286 286 287 287 288 290 291 294 299 301 304 309 310 317 313 312 310 308 308 307 305
281 282 282 283 284 284 284 284 284 284 284 284 284 285 285 286 286 287 287 287 287 288 290 291 291 296 303 307 307 310 312 313 311 310 308 308 306 305
282 282 282 283 283 284 284 285 285 284 284 284 284 284 284 284 284 284 285 285 286 287 290 291 290 291 294 297 304 310 311 309 309 309 308 307 306 304
284 284 283 283 284 284 284 284 285 285 285 285 284 284 284 284 284 284 285 285 285 285 287 288 289 290 289 291 297 309 310 309 308 307 306 307 306 304
282 282 283 284 284 284 285 285 285 285 285 285 285 285 284 284 285 285 285 285 285 285 286 286 287 287 288 289 291 295 310 309 308 307 306 305 305 303
282 282 283 283 283 284 284 285 285 285 285 285 284 284 285 285 285 285 285 285 285 285 286 286 286 287 287 288 289 291 294 308 308 307 306 305 304 303
283 283 282 282 282 283 283 283 283 284 285 285 285 284 284 284 284 285 285 285 285 285 286 286 287 287 287 288 289 290 293 297 307 307 305 305 304 303
283 284 284 284 283 283 283 283 283 283 283 284 284 284 284 284 284 284 284 284 285 286 286 287 287 286 286 287 289 290 293 295 303 306 305 304 304 303
282 282 282 282 283 283 283 283 283 283 283 283 283 283 283 283 284 285 285 285 285 286 286 287 288 288 290 292 294 295 293 296 305 306 305 305 303 303
280 281 281 281 282 282 283 283 283 283 283 283 283 283 283 283 283 284 285 286 286 286 286 287 287 288 289 292 294 297 299 299 306 306 306 305 304 303
280 281 281 281 281 282 282 282 283 283 283 283 283 283 283 283 283 284 284 285 286 286 287 288 288 288 289 291 291 293 298 298 306 306 306 304 302 301
280 281 281 281 281 281 282 282 282 283 284 283 283 283 283 283 284 284 285 285 286 288 287 287 288 288 288 289 291 293 296 301 305 306 306 305 303 302
280 280 281 281 281 281 281 281 282 283 283 284 283 283 283 284 284 284 285 285 286 286 287 287 287 287 288 289 290 292 294 300 304 305 305 305 305 306
Wind_Speed
17 17 17 18 17 16 16 15 8 3 3 6 7 11 34 33 32 30 31 27 23 20 15 17 20 16 53 50 47 45 42 38 35 32 30 27 23 21
20 21 21 21 19 20 19 17 17 15 4 8 18 30 32 35 31 30 32 31 24 20 19 16 8 17 48 54 52 50 46 41 37 35 32 29 26 23
23 23 24 23 24 23 23 22 21 22 14 25 25 32 31 33 34 32 32 29 27 22 19 15 9 19 32 60 56 54 49 43 41 37 34 31 28 26
27 27 27 26 26 26 26 27 26 25 22 19 26 30 27 29 32 33 30 29 27 21 21 17 12 14 24 59 61 57 52 48 44 41 37 34 31 29
29 29 29 28 29 29 28 28 28 26 23 21 21 25 30 25 28 29 27 24 26 26 26 21 17 24 29 51 62 60 56 52 48 43 40 37 35 31
29 29 29 29 29 29 29 28 28 28 24 22 19 20 24 22 21 23 23 24 25 27 19 16 13 7 15 60 65 63 61 56 51 47 43 40 37 34
30 30 30 29 28 26 25 25 25 25 22 18 18 15 21 16 15 18 20 22 27 11 17 14 10 12 17 53 73 70 65 60 55 50 46 44 39 37
32 31 31 27 26 25 26 25 26 27 26 20 19 17 20 21 19 19 18 17 7 10 28 35 25 16 17 20 63 70 67 63 58 54 50 46 43 40
29 27 25 24 22 24 24 25 27 29 31 27 23 22 21 23 17 17 17 17 19 24 23 25 21 25 18 23 33 73 71 66 61 57 53 49 46 42
29 28 28 27 26 25 28 29 30 31 32 32 27 25 23 25 20 17 23 23 23 22 18 14 16 19 18 31 28 71 74 69 64 60 56 52 49 45
29 28 28 29 27 26 27 26 25 28 26 27 28 29 27 25 24 23 19 17 15 17 14 17 14 16 18 24 28 49 77 72 68 63 58 54 51 46
25 26 26 29 28 27 28 28 27 26 22 22 26 28 28 29 26 25 20 18 15 13 15 12 16 12 5 18 34 50 68 75 70 65 61 56 53 49
23 24 26 26 28 27 28 29 28 23 23 24 24 26 27 28 28 29 29 26 19 20 12 12 6 11 8 6 13 46 57 60 64 66 63 58 55 51
22 22 24 25 27 27 26 27 27 27 25 24 26 25 23 23 25 27 26 28 29 31 26 19 9 7 6 8 6 17 45 53 56 55 58 59 56 53
24 25 24 24 24 25 27 29 27 26 23 20 19 17 22 23 25 25 25 26 26 29 27 26 27 25 23 13 12 15 28 43 50 51 53 55 55 52
27 28 26 25 24 23 20 25 27 24 21 22 24 23 23 23 24 24 24 22 22 21 25 27 27 28 24 23 21 26 22 22 46 50 51 50 50 50
24 27 25 21 20 20 22 23 22 21 23 23 20 19 22 22 21 22 24 21 20 20 19 22 25 28 29 23 19 26 23 20 45 49 50 47 49 50
23 17 18 18 20 20 21 22 23 24 23 22 21 20 20 20 19 18 21 22 21 21 21 20 22 21 18 25 35 28 24 24 24 47 49 46 44 49
14 11 13 14 16 19 22 22 22 23 25 22 22 22 19 19 22 20 22 21 22 22 22 20 21 18 7 9 12 30 32 29 28 43 48 47 44 47
14 15 16 17 17 18 19 22 23 22 23 23 24 23 22 21 19 22 21 21 22 22 21 22 25 25 20 12 7 18 29 36 36 42 44 39 39 40
17 17 17 18 18 19 21 20 23 24 24 23 24 23 22 22 21 22 22 23 23 23 20 19 19 24 24 22 12 17 25 32 37 48 48 41 41 34
18 18 18 19 19 19 17 20 21 20 25 23 24 23 21 22 22 21 22 21 22 19 20 20 18 20 19 15 15 15 21 23 45 51 54 57 56 19
20 20 20 19 19 18 19 18 18 19 18 22 23 23 23 22 22 22 22 22 21 20 19 17 17 20 21 21 20 17 19 26 39 41 47 54 54 34
Wind_Direction
291 292 290 290 289 287 285 281 263 302 306 305 308 297 318 329 331 331 330 322 316 316 307 326 274 273 188 187 186 188 189 190 186 188 182 178 174 168
292 291 290 289 288 287 283 278 269 252 252 278 288 302 313 318 324 328 327 324 315 310 298 318 284 258 199 188 186 189 189 193 188 189 183 178 176 171
288 285 285 287 287 285 284 282 273 265 256 278 286 298 307 315 320 325 328 326 316 313 312 297 268 243 221 192 188 189 188 192 191 189 185 178 178 176
285 283 281 282 281 281 279 279 278 276 264 272 288 297 302 310 315 320 328 326 322 318 306 292 285 268 229 194 190 190 189 189 191 188 186 181 181 179
281 277 277 278 276 275 275 275 276 276 271 265 276 290 297 306 313 318 320 327 320 317 303 293 284 290 235 201 192 191 190 188 191 188 185 183 183 180
276 274 273 270 268 271 271 270 272 274 273 269 274 280 290 299 305 310 317 325 323 321 316 302 289 325 254 206 197 194 192 189 191 188 185 185 185 181
275 272 270 268 268 261 259 261 263 261 262 264 268 264 278 288 290 302 303 315 321 330 332 321 290 292 312 202 192 194 192 188 189 188 186 185 186 181
273 271 271 263 256 256 256 254 255 254 248 247 258 255 262 273 280 284 293 309 318 299 330 314 311 287 256 205 192 194 193 189 187 188 187 186 185 182
275 273 269 260 256 256 254 257 258 255 253 253 243 246 248 265 276 283 283 281 280 293 306 301 302 284 260 288 230 193 193 190 188 189 189 186 186 185
275 274 272 270 260 256 255 255 255 258 255 254 260 264 267 274 269 267 280 280 284 291 290 283 299 291 273 245 214 195 193 190 188 189 189 188 187 187
275 271 267 266 263 262 258 254 253 250 253 252 254 259 261 261 263 267 255 262 277 285 274 261 289 308 282 266 243 212 193 191 188 187 190 189 187 187
270 268 267 266 263 259 254 252 252 253 249 248 248 250 253 255 258 257 257 254 260 291 274 247 269 291 278 254 263 202 188 191 188 186 190 190 187 185
266 266 261 261 260 259 258 254 246 249 248 250 245 246 252 257 257 255 251 252 251 254 262 275 296 328 317 299 310 190 186 183 183 186 188 192 190 185
271 270 267 265 268 261 256 256 256 255 252 237 231 233 234 240 246 255 253 252 251 250 256 265 260 255 307 316 282 210 187 181 179 179 181 191 193 192
280 275 273 268 265 259 254 253 255 251 248 243 238 231 230 242 249 256 261 261 260 257 255 252 254 255 261 256 285 303 189 183 180 176 178 182 185 188
272 272 271 269 266 265 263 253 251 250 243 239 237 237 240 242 240 244 246 247 247 251 252 251 252 248 248 250 254 271 276 193 180 178 177 181 184 189
273 262 257 256 253 252 253 251 252 252 247 239 236 231 235 236 239 241 240 241 241 242 244 248 250 251 248 238 240 249 257 267 186 177 174 178 184 188
291 276 262 245 239 237 238 239 240 241 241 239 235 229 230 234 235 236 236 236 237 238 238 238 233 231 235 248 243 241 245 245 223 182 177 175 180 189
309 293 278 270 259 243 238 236 235 231 234 229 232 232 231 235 232 230 227 234 234 236 234 230 217 211 225 235 254 230 228 235 212 183 181 182 181 185
295 279 275 269 260 256 252 239 237 236 231 228 226 225 227 226 228 233 233 229 230 232 232 227 223 225 224 228 224 217 230 226 199 185 181 178 180 182
294 286 278 274 272 263 253 248 246 234 231 226 224 223 225 223 226 226 226 233 233 230 231 233 226 226 228 231 255 253 255 231 211 189 182 170 162 168
297 292 287 281 274 274 269 261 248 253 233 225 223 224 227 225 223 221 224 224 233 231 231 237 233 233 233 227 235 236 242 248 203 197 190 183 174 179
307 304 302 294 281 276 270 268 264 255 259 225 221 221 223 222 223 224 223 221 228 230 233 232 231 238 236 233 238 245 245 234 189 193 191 192 191 200